Time,TemperatureF,DewpointF,PressureIn,WindDirection,WindDirectionDegrees,WindSpeedMPH,WindSpeedGustMPH,Humidity,HourlyPrecipIn,Conditions,Clouds,dailyrainin,SoftwareType,DateUTC
2013-01-30 00:03:00,39.0,22.4,29.70,North,3,3.5,3.6,51,0.00,CLR,SCT,0.00,WeatherDisplay:10.37,2013-01-30 08:03:00,
2013-01-30 00:09:00,39.0,22.4,29.70,NNW,336,2.3,0.0,51,0.00,CLR,SCT,0.00,WeatherDisplay:10.37,2013-01-30 08:09:00,
2013-01-30 00:14:00,38.8,22.2,29.70,NNW,336,2.3,3.1,51,0.00,CLR,SCT,0.00,WeatherDisplay:10.37,2013-01-30 08:14:00,
2013-01-30 00:19:00,38.8,22.2,29.70,NNW,336,2.3,3.1,51,0.00,CLR,SCT,0.00,WeatherDisplay:10.37,2013-01-30 08:19:00,
2013-01-30 00:24:00,38.5,22.8,29.70,SSW,210,2.3,3.6,53,0.00,CLR,SCT,0.00,WeatherDisplay:10.37,2013-01-30 08:24:00,
2013-01-30 00:29:00,38.5,22.8,29.70,SSW,210,3.0,4.0,53,0.00,CLR,SCT,0.00,WeatherDisplay:10.37,2013-01-30 08:29:00,
2013-01-30 00:34:00,38.1,22.9,29.70,SSW,211,3.5,3.6,54,0.00,CLR,SCT,0.00,WeatherDisplay:10.37,2013-01-30 08:34:00,
2013-01-30 00:40:00,38.1,22.9,29.70,SSW,211,3.5,3.6,54,0.00,CLR,SCT,0.00,WeatherDisplay:10.37,2013-01-30 08:40:00,
2013-01-30 00:45:00,37.4,23.1,29.70,SE,138,3.5,3.6,56,0.00,CLR,SCT,0.00,WeatherDisplay:10.37,2013-01-30 08:45:00,
2013-01-30 00:50:00,37.0,23.2,29.70,South,172,3.5,3.5,57,0.00,CLR,SCT,0.00,WeatherDisplay:10.37,2013-01-30 08:50:00,
2013-01-30 00:55:00,37.0,23.2,29.70,South,172,2.3,2.7,57,0.00,CLR,SCT,0.00,WeatherDisplay:10.37,2013-01-30 08:55:00,
2013-01-30 01:00:00,36.9,23.0,29.70,South,172,0.0,0.0,57,0.00,CLR,SCT,0.00,WeatherDisplay:10.37,2013-01-30 09:00:00,
2013-01-30 01:05:00,36.9,23.0,29.70,SW,220,3.5,3.6,57,0.00,CLR,SCT,0.00,WeatherDisplay:10.37,2013-01-30 09:05:00,
2013-01-30 01:11:00,36.7,23.3,29.70,SSW,210,4.6,4.6,58,0.00,CLR,SCT,0.00,WeatherDisplay:10.37,2013-01-30 09:11:00,
2013-01-30 01:16:00,36.3,23.3,29.70,South,183,3.5,3.6,59,0.00,CLR,SCT,0.00,WeatherDisplay:10.37,2013-01-30 09:16:00,
2013-01-30 01:21:00,36.3,23.3,29.70,South,183,3.5,3.5,59,0.00,CLR,SCT,0.00,WeatherDisplay:10.37,2013-01-30 09:21:00,
2013-01-30 01:27:00,36.3,23.3,29.70,South,183,2.3,2.7,59,0.00,CLR,SCT,0.00,WeatherDisplay:10.37,2013-01-30 09:27:00,
2013-01-30 01:32:00,36.3,23.3,29.70,WSW,238,3.5,3.6,59,0.00,CLR,SCT,0.00,WeatherDisplay:10.37,2013-01-30 09:32:00,
2013-01-30 01:37:00,36.3,23.3,29.70,WSW,238,2.3,2.7,59,0.00,CLR,SCT,0.00,WeatherDisplay:10.37,2013-01-30 09:37:00,
2013-01-30 01:42:00,36.3,23.8,29.70,SSW,202,3.5,3.5,60,0.00,CLR,SCT,0.00,WeatherDisplay:10.37,2013-01-30 09:42:00,
2013-01-30 01:47:00,36.3,23.8,29.70,SSW,202,3.5,3.5,60,0.00,CLR,SCT,0.00,WeatherDisplay:10.37,2013-01-30 09:47:00,
2013-01-30 01:52:00,36.3,23.8,29.70,ESE,123,0.0,0.0,60,0.00,CLR,SCT,0.00,WeatherDisplay:10.37,2013-01-30 09:52:00,
2013-01-30 01:58:00,36.5,23.1,29.70,North,0,0.0,0.0,58,0.00,CLR,SCT,0.00,WeatherDisplay:10.37,2013-01-30 09:58:00,
2013-01-30 02:03:00,36.3,23.3,29.70,SE,143,0.0,0.0,59,0.00,CLR,SCT,0.00,WeatherDisplay:10.37,2013-01-30 10:03:00,
2013-01-30 02:08:00,36.3,23.3,29.70,WSW,256,4.6,4.6,59,0.00,CLR,SCT,0.00,WeatherDisplay:10.37,2013-01-30 10:08:00,
2013-01-30 02:13:00,36.3,23.3,29.70,WSW,256,2.3,2.7,59,0.00,CLR,SCT,0.00,WeatherDisplay:10.37,2013-01-30 10:13:00,
2013-01-30 02:19:00,36.7,23.3,29.70,WSW,256,0.0,0.0,58,0.00,CLR,SCT,0.00,WeatherDisplay:10.37,2013-01-30 10:19:00,
2013-01-30 02:24:00,36.7,23.3,29.70,SSW,212,3.5,3.6,58,0.00,CLR,SCT,0.00,WeatherDisplay:10.37,2013-01-30 10:24:00,
2013-01-30 02:29:00,36.7,23.7,29.70,SSW,211,3.5,0.0,59,0.00,CLR,SCT,0.00,WeatherDisplay:10.37,2013-01-30 10:29:00,
2013-01-30 02:34:00,36.1,23.2,29.70,SSW,211,0.0,0.0,59,0.00,CLR,SCT,0.00,WeatherDisplay:10.37,2013-01-30 10:34:00,
2013-01-30 02:39:00,36.1,23.6,29.70,SSW,211,2.3,0.0,60,0.00,CLR,SCT,0.00,WeatherDisplay:10.37,2013-01-30 10:39:00,
2013-01-30 02:44:00,36.1,23.6,29.70,SSW,211,2.3,0.0,60,0.00,CLR,SCT,0.00,WeatherDisplay:10.37,2013-01-30 10:44:00,
2013-01-30 02:50:00,36.0,23.4,29.70,SSW,211,0.0,0.0,60,0.00,CLR,SCT,0.00,WeatherDisplay:10.37,2013-01-30 10:50:00,
2013-01-30 02:55:00,36.0,23.4,29.70,SE,128,0.0,2.7,60,0.00,CLR,SCT,0.00,WeatherDisplay:10.37,2013-01-30 10:55:00,
2013-01-30 03:00:00,36.5,23.5,29.70,SE,128,0.0,2.7,59,0.00,CLR,SCT,0.00,WeatherDisplay:10.37,2013-01-30 11:00:00,
2013-01-30 03:05:00,36.5,23.5,29.70,SE,128,0.0,0.0,59,0.00,CLR,SCT,0.00,WeatherDisplay:10.37,2013-01-30 11:05:00,
2013-01-30 03:10:00,36.3,23.3,29.70,SE,128,0.0,0.0,59,0.00,CLR,SCT,0.00,WeatherDisplay:10.37,2013-01-30 11:10:00,
2013-01-30 03:15:00,36.1,23.2,29.70,SE,128,0.0,0.0,59,0.00,CLR,SCT,0.00,WeatherDisplay:10.37,2013-01-30 11:15:00,
2013-01-30 03:21:00,36.1,23.2,29.70,SE,128,0.0,0.0,59,0.00,CLR,SCT,0.00,WeatherDisplay:10.37,2013-01-30 11:21:00,
2013-01-30 03:26:00,36.1,23.2,29.70,SE,128,0.0,0.0,59,0.00,CLR,SCT,0.00,WeatherDisplay:10.37,2013-01-30 11:26:00,
2013-01-30 03:31:00,36.1,23.2,29.70,SE,139,0.0,0.0,59,0.00,CLR,SCT,0.00,WeatherDisplay:10.37,2013-01-30 11:31:00,
2013-01-30 03:36:00,35.4,24.1,29.70,SE,139,0.0,0.0,63,0.00,CLR,SCT,0.00,WeatherDisplay:10.37,2013-01-30 11:36:00,
2013-01-30 03:42:00,35.4,24.4,29.70,South,175,0.0,0.0,64,0.00,CLR,SCT,0.00,WeatherDisplay:10.37,2013-01-30 11:42:00,
2013-01-30 03:47:00,35.1,24.5,29.70,South,175,0.0,0.0,65,0.00,CLR,SCT,0.00,WeatherDisplay:10.37,2013-01-30 11:47:00,
2013-01-30 03:52:00,35.1,24.5,29.70,WNW,301,1.2,0.0,65,0.00,CLR,SCT,0.00,WeatherDisplay:10.37,2013-01-30 11:52:00,
2013-01-30 03:57:00,35.2,24.6,29.70,South,173,0.0,0.0,65,0.00,CLR,SCT,0.00,WeatherDisplay:10.37,2013-01-30 11:57:00,
2013-01-30 04:03:00,35.1,24.1,29.70,South,173,0.0,0.0,64,0.00,CLR,SCT,0.00,WeatherDisplay:10.37,2013-01-30 12:03:00,
2013-01-30 04:08:00,34.9,24.3,29.70,South,173,0.0,0.0,65,0.00,CLR,SCT,0.00,WeatherDisplay:10.37,2013-01-30 12:08:00,
2013-01-30 04:13:00,34.9,24.3,29.70,West,269,0.0,0.0,65,0.00,CLR,SCT,0.00,WeatherDisplay:10.37,2013-01-30 12:13:00,
2013-01-30 04:18:00,34.7,24.5,29.70,West,269,0.0,0.0,66,0.00,CLR,SCT,0.00,WeatherDisplay:10.37,2013-01-30 12:18:00,
2013-01-30 04:23:00,34.7,25.2,29.70,North,0,0.0,0.0,68,0.00,CLR,SCT,0.00,WeatherDisplay:10.37,2013-01-30 12:23:00,
2013-01-30 04:29:00,34.5,25.0,29.70,NE,41,0.0,0.0,68,0.00,CLR,SCT,0.00,WeatherDisplay:10.37,2013-01-30 12:29:00,
2013-01-30 04:34:00,34.7,25.2,29.70,NNE,32,2.3,2.7,68,0.00,CLR,SCT,0.00,WeatherDisplay:10.37,2013-01-30 12:34:00,
2013-01-30 04:39:00,34.7,25.2,29.70,East,96,0.0,0.0,68,0.00,CLR,SCT,0.00,WeatherDisplay:10.37,2013-01-30 12:39:00,
2013-01-30 04:44:00,34.7,25.2,29.70,ENE,75,0.0,4.0,68,0.00,CLR,SCT,0.00,WeatherDisplay:10.37,2013-01-30 12:44:00,
2013-01-30 04:49:00,34.5,25.4,29.70,WSW,244,3.5,3.6,69,0.00,CLR,SCT,0.00,WeatherDisplay:10.37,2013-01-30 12:49:00,
2013-01-30 04:54:00,34.5,25.4,29.70,WSW,244,0.0,0.0,69,0.00,CLR,SCT,0.00,WeatherDisplay:10.37,2013-01-30 12:54:00,
2013-01-30 05:00:00,34.5,25.4,29.70,East,97,5.8,5.8,69,0.00,CLR,SCT,0.00,WeatherDisplay:10.37,2013-01-30 13:00:00,
2013-01-30 05:05:00,34.5,25.7,29.70,ESE,119,5.8,5.8,70,0.00,CLR,SCT,0.00,WeatherDisplay:10.37,2013-01-30 13:05:00,
2013-01-30 05:10:00,34.5,25.7,29.70,SE,124,5.8,5.8,70,0.00,CLR,SCT,0.00,WeatherDisplay:10.37,2013-01-30 13:10:00,
2013-01-30 05:15:00,34.5,25.7,29.70,West,273,0.0,0.0,70,0.00,CLR,SCT,0.00,WeatherDisplay:10.37,2013-01-30 13:15:00,
2013-01-30 05:20:00,34.5,25.7,29.70,ESE,102,0.0,45.1,70,0.00,CLR,SCT,0.00,WeatherDisplay:10.37,2013-01-30 13:20:00,
2013-01-30 05:25:00,34.5,25.7,29.70,North,0,44.9,45.1,70,0.00,,SCT,0.00,WeatherDisplay:10.37,2013-01-30 13:25:00,
2013-01-30 05:30:00,34.5,25.7,29.70,East,100,44.9,45.1,70,0.00,,SCT,0.00,WeatherDisplay:10.37,2013-01-30 13:30:00,
2013-01-30 05:35:00,34.5,25.4,29.70,NNE,30,44.9,45.1,69,0.00,,SCT,0.00,WeatherDisplay:10.37,2013-01-30 13:35:00,
2013-01-30 05:41:00,34.7,25.2,29.70,NNE,26,3.5,3.6,68,0.00,CLR,SCT,0.00,WeatherDisplay:10.37,2013-01-30 13:41:00,
2013-01-30 05:46:00,-25.8,-27.9,29.70,NNE,26,3.5,3.6,89,0.00,CLR,SCT,0.00,WeatherDisplay:10.37,2013-01-30 13:46:00,
2013-01-30 05:51:00,34.9,25.0,29.70,NE,47,0.0,0.0,67,0.00,CLR,SCT,0.00,WeatherDisplay:10.37,2013-01-30 13:51:00,
2013-01-30 05:56:00,35.1,25.2,29.73,NE,47,0.0,0.0,67,0.00,CLR,SCT,0.00,WeatherDisplay:10.37,2013-01-30 13:56:00,
2013-01-30 06:01:00,35.1,25.2,29.73,SW,224,3.5,3.5,67,0.00,CLR,SCT,0.00,WeatherDisplay:10.37,2013-01-30 14:01:00,
2013-01-30 06:06:00,35.1,25.2,29.73,SW,224,3.5,3.5,67,0.00,CLR,SCT,0.00,WeatherDisplay:10.37,2013-01-30 14:06:00,
2013-01-30 06:11:00,35.1,25.2,29.73,SW,224,3.5,3.5,67,0.00,CLR,SCT,0.00,WeatherDisplay:10.37,2013-01-30 14:11:00,
2013-01-30 06:17:00,35.1,25.2,29.73,NNE,29,3.5,3.6,67,0.00,CLR,SCT,0.00,WeatherDisplay:10.37,2013-01-30 14:17:00,
2013-01-30 06:22:00,35.1,25.2,29.73,NNE,29,3.5,3.6,67,0.00,CLR,SCT,0.00,WeatherDisplay:10.37,2013-01-30 14:22:00,
2013-01-30 06:27:00,35.4,24.4,29.73,NNE,31,3.5,0.0,64,0.00,CLR,SCT,0.00,WeatherDisplay:10.37,2013-01-30 14:27:00,
2013-01-30 06:32:00,35.4,24.8,29.73,NNE,31,0.0,0.0,65,0.00,CLR,SCT,0.00,WeatherDisplay:10.37,2013-01-30 14:32:00,
2013-01-30 06:37:00,35.4,24.8,29.73,West,278,0.0,0.0,65,0.00,CLR,SCT,0.00,WeatherDisplay:10.37,2013-01-30 14:37:00,
2013-01-30 06:43:00,35.6,25.0,29.73,ENE,76,3.5,3.5,65,0.00,CLR,SCT,0.00,WeatherDisplay:10.37,2013-01-30 14:43:00,
2013-01-30 06:48:00,35.6,25.0,29.73,ENE,71,0.0,0.0,65,0.00,CLR,SCT,0.00,WeatherDisplay:10.37,2013-01-30 14:48:00,
2013-01-30 06:53:00,35.6,25.0,29.73,East,93,3.5,3.5,65,0.00,CLR,SCT,0.00,WeatherDisplay:10.37,2013-01-30 14:53:00,
2013-01-30 06:58:00,35.8,24.8,29.73,East,98,0.0,0.0,64,0.00,CLR,SCT,0.00,WeatherDisplay:10.37,2013-01-30 14:58:00,
2013-01-30 07:03:00,35.8,24.4,29.73,WSW,252,0.0,0.0,63,0.00,CLR,SCT,0.00,WeatherDisplay:10.37,2013-01-30 15:03:00,
2013-01-30 07:08:00,35.8,24.4,29.73,WSW,252,0.0,0.0,63,0.00,CLR,SCT,0.00,WeatherDisplay:10.37,2013-01-30 15:08:00,
2013-01-30 07:14:00,35.8,24.4,29.73,WSW,248,3.6,3.6,63,0.00,CLR,SCT,0.00,WeatherDisplay:10.37,2013-01-30 15:14:00,
2013-01-30 07:19:00,35.8,24.4,29.73,West,259,3.5,0.0,63,0.00,CLR,SCT,0.00,WeatherDisplay:10.37,2013-01-30 15:19:00,
2013-01-30 07:24:00,35.8,24.4,29.73,WSW,257,0.0,0.0,63,0.00,CLR,SCT,0.00,WeatherDisplay:10.37,2013-01-30 15:24:00,
2013-01-30 07:29:00,35.8,24.8,29.73,WSW,237,2.0,4.0,64,0.00,CLR,SCT,0.00,WeatherDisplay:10.37,2013-01-30 15:29:00,
2013-01-30 07:35:00,35.8,24.8,29.73,SW,218,2.3,0.0,64,0.00,CLR,SCT,0.00,WeatherDisplay:10.37,2013-01-30 15:35:00,
2013-01-30 07:40:00,35.8,-38.0,29.73,North,10,3.5,4.0,3,0.00,CLR,SCT,0.00,WeatherDisplay:10.37,2013-01-30 15:40:00,
2013-01-30 07:45:00,36.1,24.7,29.73,West,262,0.0,0.0,63,0.00,CLR,SCT,0.00,WeatherDisplay:10.37,2013-01-30 15:45:00,
2013-01-30 07:50:00,36.3,24.5,29.73,West,262,2.3,3.1,62,0.00,CLR,SCT,0.00,WeatherDisplay:10.37,2013-01-30 15:50:00,
2013-01-30 07:56:00,36.5,24.3,29.73,West,262,2.3,3.1,61,0.00,CLR,SCT,0.00,WeatherDisplay:10.37,2013-01-30 15:56:00,
2013-01-30 08:01:00,36.3,24.1,29.73,West,262,2.3,3.1,61,0.00,CLR,SCT,0.00,WeatherDisplay:10.37,2013-01-30 16:01:00,
2013-01-30 08:06:00,36.5,24.3,29.73,ESE,111,2.3,3.1,61,0.00,CLR,SCT,0.00,WeatherDisplay:10.37,2013-01-30 16:06:00,
2013-01-30 08:11:00,86.0,84.1,29.73,ESE,111,2.3,3.1,94,0.00,CLR,SCT,0.00,WeatherDisplay:10.37,2013-01-30 16:11:00,
2013-01-30 08:16:00,36.7,24.1,29.73,ESE,111,4.6,4.6,60,0.00,CLR,SCT,0.00,WeatherDisplay:10.37,2013-01-30 16:16:00,
2013-01-30 08:21:00,36.7,24.1,29.73,West,264,4.6,0.0,60,0.00,CLR,SCT,0.00,WeatherDisplay:10.37,2013-01-30 16:21:00,
2013-01-30 08:27:00,36.7,24.1,29.73,West,264,3.5,4.0,60,0.00,CLR,SCT,0.00,WeatherDisplay:10.37,2013-01-30 16:27:00,
2013-01-30 08:32:00,36.7,24.1,29.73,SE,141,4.6,4.6,60,0.00,CLR,SCT,0.00,WeatherDisplay:10.37,2013-01-30 16:32:00,
2013-01-30 08:37:00,36.7,24.1,29.73,SE,141,2.3,3.6,60,0.00,CLR,SCT,0.00,WeatherDisplay:10.37,2013-01-30 16:37:00,
2013-01-30 08:42:00,36.7,24.1,29.73,SE,141,2.3,3.6,60,0.00,CLR,SCT,0.00,WeatherDisplay:10.37,2013-01-30 16:42:00,
2013-01-30 08:47:00,37.0,23.6,29.73,SSW,192,0.0,0.0,58,0.00,CLR,SCT,0.00,WeatherDisplay:10.37,2013-01-30 16:47:00,
2013-01-30 08:52:00,37.2,23.4,29.73,NNE,19,0.0,44.9,57,0.00,CLR,SCT,0.00,WeatherDisplay:10.37,2013-01-30 16:52:00,
2013-01-30 08:57:00,37.2,23.4,29.73,SSE,153,0.0,0.0,57,0.00,CLR,SCT,0.00,WeatherDisplay:10.37,2013-01-30 16:57:00,
2013-01-30 09:02:00,37.4,23.5,29.73,SE,141,2.3,2.3,57,0.00,CLR,SCT,0.00,WeatherDisplay:10.37,2013-01-30 17:02:00,
2013-01-30 09:08:00,37.6,23.7,29.73,SE,141,0.0,2.2,57,0.00,CLR,SCT,0.00,WeatherDisplay:10.37,2013-01-30 17:08:00,
2013-01-30 09:13:00,37.8,23.9,29.73,SE,141,0.0,0.0,57,0.00,CLR,SCT,0.00,WeatherDisplay:10.37,2013-01-30 17:13:00,
2013-01-30 09:18:00,37.8,23.9,29.73,ESE,119,0.0,0.0,57,0.00,CLR,SCT,0.00,WeatherDisplay:10.37,2013-01-30 17:18:00,
2013-01-30 09:23:00,38.1,23.4,29.73,South,180,3.5,3.5,55,0.00,CLR,SCT,0.00,WeatherDisplay:10.37,2013-01-30 17:23:00,
2013-01-30 09:28:00,38.1,23.4,29.73,South,189,2.3,0.0,55,0.00,CLR,SCT,0.00,WeatherDisplay:10.37,2013-01-30 17:28:00,
2013-01-30 09:34:00,38.1,23.4,29.73,South,172,3.5,0.0,55,0.00,CLR,SCT,0.00,WeatherDisplay:10.37,2013-01-30 17:34:00,
2013-01-30 09:39:00,38.1,23.4,29.73,South,177,3.5,0.0,55,0.00,CLR,SCT,0.00,WeatherDisplay:10.37,2013-01-30 17:39:00,
2013-01-30 09:44:00,38.1,23.4,29.73,South,177,0.0,0.0,55,0.00,CLR,SCT,0.00,WeatherDisplay:10.37,2013-01-30 17:44:00,
2013-01-30 09:49:00,38.1,23.4,29.73,SSW,205,0.0,0.0,55,0.00,CLR,SCT,0.00,WeatherDisplay:10.37,2013-01-30 17:49:00,
2013-01-30 09:55:00,38.1,23.4,29.73,SSW,206,0.0,0.0,55,0.00,CLR,SCT,0.00,WeatherDisplay:10.37,2013-01-30 17:55:00,
2013-01-30 10:00:00,38.1,23.4,29.73,SSW,205,0.0,0.0,55,0.00,CLR,SCT,0.00,WeatherDisplay:10.37,2013-01-30 18:00:00,
2013-01-30 10:05:00,40.1,23.9,29.73,SW,223,0.0,0.0,52,0.00,CLR,SCT,0.00,WeatherDisplay:10.37,2013-01-30 18:05:00,
2013-01-30 10:10:00,42.3,25.4,29.73,SW,223,0.0,0.0,51,0.00,CLR,SCT,0.00,WeatherDisplay:10.37,2013-01-30 18:10:00,
2013-01-30 10:15:00,40.5,24.2,29.73,SW,217,0.0,0.0,52,0.00,CLR,SCT,0.00,WeatherDisplay:10.37,2013-01-30 18:15:00,
2013-01-30 10:20:00,40.6,23.9,29.73,SW,214,2.3,2.7,51,0.00,CLR,SCT,0.00,WeatherDisplay:10.37,2013-01-30 18:20:00,
2013-01-30 10:25:00,41.0,24.2,29.73,SW,218,0.0,0.0,51,0.00,CLR,SCT,0.00,WeatherDisplay:10.37,2013-01-30 18:25:00,
2013-01-30 10:30:00,41.0,24.2,29.73,SW,218,0.0,0.0,51,0.00,CLR,SCT,0.00,WeatherDisplay:10.37,2013-01-30 18:30:00,
2013-01-30 10:36:00,41.7,23.9,29.73,SW,218,0.0,0.0,49,0.00,CLR,SCT,0.00,WeatherDisplay:10.37,2013-01-30 18:36:00,
2013-01-30 10:41:00,42.1,24.8,29.73,WSW,247,0.0,0.0,50,0.00,CLR,SCT,0.00,WeatherDisplay:10.37,2013-01-30 18:41:00,
2013-01-30 10:46:00,42.4,24.6,29.73,WSW,243,3.1,0.0,49,0.00,CLR,SCT,0.00,WeatherDisplay:10.37,2013-01-30 18:46:00,
2013-01-30 10:51:00,42.8,24.9,29.73,WSW,247,2.3,0.0,49,0.00,CLR,SCT,0.00,WeatherDisplay:10.37,2013-01-30 18:51:00,
2013-01-30 10:57:00,42.8,24.9,29.73,WSW,250,0.0,0.0,49,0.00,CLR,SCT,0.00,WeatherDisplay:10.37,2013-01-30 18:57:00,
2013-01-30 11:02:00,42.8,24.9,29.73,WSW,250,0.0,0.0,49,0.00,CLR,SCT,0.00,WeatherDisplay:10.37,2013-01-30 19:02:00,
2013-01-30 11:07:00,43.7,25.8,29.73,WSW,250,0.0,0.0,49,0.00,CLR,SCT,0.00,WeatherDisplay:10.37,2013-01-30 19:07:00,
2013-01-30 11:12:00,44.1,26.1,29.73,NNW,340,0.0,0.0,49,0.00,CLR,SCT,0.00,WeatherDisplay:10.37,2013-01-30 19:12:00,
2013-01-30 11:17:00,44.8,26.8,29.73,NNW,340,0.0,0.0,49,0.00,CLR,SCT,0.00,WeatherDisplay:10.37,2013-01-30 19:17:00,
2013-01-30 11:23:00,44.8,26.8,29.73,SE,137,3.5,0.0,49,0.00,CLR,SCT,0.00,WeatherDisplay:10.37,2013-01-30 19:23:00,
2013-01-30 11:28:00,45.3,26.8,29.73,SE,137,3.5,0.0,48,0.00,CLR,SCT,0.00,WeatherDisplay:10.37,2013-01-30 19:28:00,
2013-01-30 11:33:00,45.9,26.7,29.73,South,175,2.3,0.0,47,0.00,CLR,SCT,0.00,WeatherDisplay:10.37,2013-01-30 19:33:00,
2013-01-30 11:38:00,46.2,27.1,29.73,South,175,2.3,0.0,47,0.00,CLR,SCT,0.00,WeatherDisplay:10.37,2013-01-30 19:38:00,
2013-01-30 11:44:00,46.2,27.1,29.73,NW,313,2.3,2.7,47,0.00,CLR,SCT,0.00,WeatherDisplay:10.37,2013-01-30 19:44:00,
2013-01-30 11:49:00,46.2,27.1,29.73,NW,313,2.3,2.7,47,0.00,CLR,SCT,0.00,WeatherDisplay:10.37,2013-01-30 19:49:00,
2013-01-30 11:54:00,47.8,27.0,29.73,SW,222,9.2,9.2,44,0.00,CLR,SCT,0.00,WeatherDisplay:10.37,2013-01-30 19:54:00,
2013-01-30 11:59:00,48.0,27.1,29.73,SW,222,9.2,9.2,44,0.00,CLR,SCT,0.00,WeatherDisplay:10.37,2013-01-30 19:59:00,
2013-01-30 12:04:00,48.4,26.9,29.73,North,10,5.8,10.1,43,0.00,CLR,SCT,0.00,WeatherDisplay:10.37,2013-01-30 20:04:00,
2013-01-30 12:10:00,48.4,26.9,29.73,NW,305,5.8,6.3,43,0.00,CLR,SCT,0.00,WeatherDisplay:10.37,2013-01-30 20:10:00,
2013-01-30 12:15:00,48.4,26.9,29.73,NW,305,5.8,6.3,43,0.00,CLR,SCT,0.00,WeatherDisplay:10.37,2013-01-30 20:15:00,
2013-01-30 12:20:00,48.9,26.8,29.73,West,262,11.5,11.5,42,0.00,CLR,SCT,0.00,WeatherDisplay:10.37,2013-01-30 20:20:00,
2013-01-30 12:25:00,48.9,26.8,29.73,West,262,11.5,11.5,42,0.00,CLR,SCT,0.00,WeatherDisplay:10.37,2013-01-30 20:25:00,
2013-01-30 12:30:00,49.3,27.1,29.73,West,262,11.5,11.5,42,0.00,CLR,SCT,0.00,WeatherDisplay:10.37,2013-01-30 20:30:00,
2013-01-30 12:35:00,49.3,27.1,29.73,West,262,11.5,11.5,42,0.00,CLR,SCT,0.00,WeatherDisplay:10.37,2013-01-30 20:35:00,
2013-01-30 12:41:00,49.6,26.9,29.73,West,262,11.5,11.5,41,0.00,CLR,SCT,0.00,WeatherDisplay:10.37,2013-01-30 20:41:00,
2013-01-30 12:46:00,50.0,27.2,29.73,SW,235,9.2,9.2,41,0.00,CLR,SCT,0.00,WeatherDisplay:10.37,2013-01-30 20:46:00,
2013-01-30 12:51:00,50.2,27.4,29.73,WSW,255,6.9,6.9,41,0.00,CLR,SCT,0.00,WeatherDisplay:10.37,2013-01-30 20:51:00,
2013-01-30 12:57:00,50.2,27.4,29.73,WSW,255,6.3,6.3,41,0.00,CLR,SCT,0.00,WeatherDisplay:10.37,2013-01-30 20:57:00,
2013-01-30 13:02:00,50.2,26.8,29.73,WSW,255,5.8,5.8,40,0.00,CLR,SCT,0.00,WeatherDisplay:10.37,2013-01-30 21:02:00,
2013-01-30 13:07:00,50.0,26.6,29.73,NW,310,15.0,15.0,40,0.00,CLR,SCT,0.00,WeatherDisplay:10.37,2013-01-30 21:07:00,
2013-01-30 13:12:00,49.6,26.9,29.73,WSW,255,17.3,17.3,41,0.00,CLR,SCT,0.00,WeatherDisplay:10.37,2013-01-30 21:12:00,
2013-01-30 13:17:00,49.6,26.9,29.73,North,11,8.1,9.6,41,0.00,CLR,SCT,0.00,WeatherDisplay:10.37,2013-01-30 21:17:00,
2013-01-30 13:23:00,49.6,26.9,29.73,WNW,282,11.5,11.5,41,0.00,CLR,SCT,0.00,WeatherDisplay:10.37,2013-01-30 21:23:00,
2013-01-30 13:28:00,49.3,26.5,29.73,WSW,246,8.1,9.6,41,0.00,CLR,SCT,0.00,WeatherDisplay:10.37,2013-01-30 21:28:00,
2013-01-30 13:33:00,49.3,26.5,29.73,WSW,246,8.1,9.6,41,0.00,CLR,SCT,0.00,WeatherDisplay:10.37,2013-01-30 21:33:00,
2013-01-30 13:38:00,49.3,26.5,29.73,WNW,300,11.5,11.5,41,0.00,CLR,SCT,0.00,WeatherDisplay:10.37,2013-01-30 21:38:00,
2013-01-30 13:44:00,49.3,26.5,29.73,WNW,300,11.5,11.5,41,0.00,CLR,SCT,0.00,WeatherDisplay:10.37,2013-01-30 21:44:00,
2013-01-30 13:49:00,49.1,26.4,29.70,WSW,254,18.4,18.4,41,0.00,CLR,SCT,0.00,WeatherDisplay:10.37,2013-01-30 21:49:00,
2013-01-30 13:54:00,49.1,26.4,29.70,WSW,254,18.4,18.4,41,0.00,CLR,SCT,0.00,WeatherDisplay:10.37,2013-01-30 21:54:00,
2013-01-30 13:59:00,48.7,26.1,29.70,West,275,18.4,18.4,41,0.00,CLR,SCT,0.00,WeatherDisplay:10.37,2013-01-30 21:59:00,
2013-01-30 14:04:00,48.7,26.1,29.70,West,275,18.4,18.4,41,0.00,CLR,SCT,0.00,WeatherDisplay:10.37,2013-01-30 22:04:00,
2013-01-30 14:09:00,48.7,26.1,29.70,WNW,286,12.7,12.7,41,0.00,CLR,SCT,0.00,WeatherDisplay:10.37,2013-01-30 22:09:00,
2013-01-30 14:15:00,48.7,26.1,29.70,WSW,245,12.7,14.5,41,0.00,CLR,SCT,0.00,WeatherDisplay:10.37,2013-01-30 22:15:00,
2013-01-30 14:20:00,48.7,26.1,29.70,WSW,245,12.7,14.5,41,0.00,CLR,SCT,0.00,WeatherDisplay:10.37,2013-01-30 22:20:00,
2013-01-30 14:25:00,48.6,26.5,29.70,WSW,245,12.7,14.5,42,0.00,CLR,SCT,0.00,WeatherDisplay:10.37,2013-01-30 22:25:00,
2013-01-30 14:30:00,48.6,26.5,29.70,WSW,251,15.0,15.0,42,0.00,CLR,SCT,0.00,WeatherDisplay:10.37,2013-01-30 22:30:00,
2013-01-30 14:35:00,48.6,26.5,29.70,West,264,10.4,13.2,42,0.00,CLR,SCT,0.00,WeatherDisplay:10.37,2013-01-30 22:35:00,
2013-01-30 14:40:00,48.6,26.5,29.70,West,264,10.4,13.2,42,0.00,CLR,SCT,0.00,WeatherDisplay:10.37,2013-01-30 22:40:00,
2013-01-30 14:45:00,48.6,26.5,29.70,West,264,10.4,13.2,42,0.00,CLR,SCT,0.00,WeatherDisplay:10.37,2013-01-30 22:45:00,
2013-01-30 14:50:00,48.6,26.5,29.70,West,259,10.4,13.2,42,0.00,CLR,SCT,0.00,WeatherDisplay:10.37,2013-01-30 22:50:00,
2013-01-30 14:55:00,48.6,26.5,29.70,WSW,256,15.0,15.0,42,0.00,CLR,SCT,0.00,WeatherDisplay:10.37,2013-01-30 22:55:00,
2013-01-30 15:00:00,48.6,26.5,29.70,WSW,256,9.2,10.9,42,0.00,CLR,SCT,0.00,WeatherDisplay:10.37,2013-01-30 23:00:00,
2013-01-30 15:05:00,48.6,26.5,29.70,West,262,9.2,10.9,42,0.00,CLR,SCT,0.00,WeatherDisplay:10.37,2013-01-30 23:05:00,
2013-01-30 15:10:00,48.6,26.5,29.70,WNW,288,10.4,10.4,42,0.00,CLR,SCT,0.00,WeatherDisplay:10.37,2013-01-30 23:10:00,
2013-01-30 15:15:00,48.7,26.1,29.70,West,263,13.8,13.8,41,0.00,CLR,SCT,0.00,WeatherDisplay:10.37,2013-01-30 23:15:00,
2013-01-30 15:21:00,48.7,26.1,29.70,WSW,243,9.2,9.2,41,0.00,CLR,SCT,0.00,WeatherDisplay:10.37,2013-01-30 23:21:00,
2013-01-30 15:26:00,48.7,26.1,29.70,NW,310,8.1,8.1,41,0.00,CLR,SCT,0.00,WeatherDisplay:10.37,2013-01-30 23:26:00,
2013-01-30 15:31:00,48.9,26.2,29.70,NW,310,5.8,7.2,41,0.00,CLR,SCT,0.00,WeatherDisplay:10.37,2013-01-30 23:31:00,
2013-01-30 15:36:00,48.9,26.2,29.70,West,264,9.2,9.2,41,0.00,CLR,SCT,0.00,WeatherDisplay:10.37,2013-01-30 23:36:00,
2013-01-30 15:41:00,48.9,26.2,29.70,West,264,9.2,9.2,41,0.00,CLR,SCT,0.00,WeatherDisplay:10.37,2013-01-30 23:41:00,
2013-01-30 15:46:00,48.9,26.2,29.70,WSW,251,9.2,9.2,41,0.00,CLR,SCT,0.00,WeatherDisplay:10.37,2013-01-30 23:46:00,
2013-01-30 15:52:00,48.7,26.1,29.70,WSW,255,10.4,10.4,41,0.00,CLR,SCT,0.00,WeatherDisplay:10.37,2013-01-30 23:52:00,
2013-01-30 15:57:00,48.7,26.1,29.70,WNW,290,9.2,9.6,41,0.00,CLR,SCT,0.00,WeatherDisplay:10.37,2013-01-30 23:57:00,
2013-01-30 16:02:00,48.7,26.1,29.70,WNW,290,9.2,9.6,41,0.00,CLR,SCT,0.00,WeatherDisplay:10.37,2013-01-31 00:02:00,
2013-01-30 16:07:00,48.7,26.1,29.70,WNW,303,5.8,6.3,41,0.00,CLR,SCT,0.00,WeatherDisplay:10.37,2013-01-31 00:07:00,
2013-01-30 16:12:00,48.7,26.1,29.70,WNW,303,5.8,6.3,41,0.00,CLR,SCT,0.00,WeatherDisplay:10.37,2013-01-31 00:12:00,
2013-01-30 16:17:00,48.7,26.1,29.70,ENE,59,10.4,19.7,41,0.00,CLR,SCT,0.00,WeatherDisplay:10.37,2013-01-31 00:17:00,
2013-01-30 16:23:00,48.7,26.1,29.70,ENE,59,2.3,19.7,41,0.00,CLR,SCT,0.00,WeatherDisplay:10.37,2013-01-31 00:23:00,
2013-01-30 16:28:00,48.2,26.2,29.70,West,280,8.1,8.1,42,0.00,CLR,SCT,0.00,WeatherDisplay:10.37,2013-01-31 00:28:00,
2013-01-30 16:33:00,48.2,26.2,29.70,West,273,8.1,8.7,42,0.00,CLR,SCT,0.00,WeatherDisplay:10.37,2013-01-31 00:33:00,
2013-01-30 16:38:00,47.8,25.8,29.70,West,262,8.1,8.7,42,0.00,CLR,SCT,0.00,WeatherDisplay:10.37,2013-01-31 00:38:00,
2013-01-30 16:43:00,47.7,26.2,29.70,West,276,5.8,8.0,43,0.00,CLR,SCT,0.00,WeatherDisplay:10.37,2013-01-31 00:43:00,
2013-01-30 16:48:00,47.7,26.2,29.73,West,276,5.8,8.0,43,0.00,CLR,SCT,0.00,WeatherDisplay:10.37,2013-01-31 00:48:00,
2013-01-30 16:54:00,47.5,26.1,29.73,WNW,288,11.5,11.8,43,0.00,CLR,SCT,0.00,WeatherDisplay:10.37,2013-01-31 00:54:00,
2013-01-30 16:59:00,47.5,26.1,29.73,WSW,251,9.2,11.8,43,0.00,CLR,SCT,0.00,WeatherDisplay:10.37,2013-01-31 00:59:00,
2013-01-30 17:04:00,47.5,26.1,29.73,West,272,9.2,10.1,43,0.00,CLR,SCT,0.00,WeatherDisplay:10.37,2013-01-31 01:04:00,
2013-01-30 17:09:00,48.0,26.0,29.73,West,278,9.2,10.9,42,0.00,CLR,SCT,0.00,WeatherDisplay:10.37,2013-01-31 01:09:00,
2013-01-30 17:14:00,48.0,26.0,29.73,WNW,284,12.0,17.0,42,0.00,CLR,SCT,0.00,WeatherDisplay:10.37,2013-01-31 01:14:00,
2013-01-30 17:19:00,48.0,26.0,29.73,West,276,10.4,10.4,42,0.00,CLR,SCT,0.00,WeatherDisplay:10.37,2013-01-31 01:19:00,
2013-01-30 17:24:00,48.0,26.0,29.73,WSW,244,10.4,10.4,42,0.00,CLR,SCT,0.00,WeatherDisplay:10.37,2013-01-31 01:24:00,
2013-01-30 17:30:00,47.8,25.8,29.73,WSW,256,10.4,10.4,42,0.00,CLR,SCT,0.00,WeatherDisplay:10.37,2013-01-31 01:30:00,
2013-01-30 17:35:00,47.7,25.7,29.73,West,277,8.1,10.1,42,0.00,CLR,SCT,0.00,WeatherDisplay:10.37,2013-01-31 01:35:00,
2013-01-30 17:40:00,47.5,26.1,29.73,WSW,254,11.5,11.5,43,0.00,CLR,SCT,0.00,WeatherDisplay:10.37,2013-01-31 01:40:00,
2013-01-30 17:45:00,47.3,25.9,29.73,WSW,254,5.8,10.1,43,0.00,CLR,SCT,0.00,WeatherDisplay:10.37,2013-01-31 01:45:00,
2013-01-30 17:51:00,47.3,25.9,29.73,WSW,258,9.2,11.4,43,0.00,CLR,SCT,0.00,WeatherDisplay:10.37,2013-01-31 01:51:00,
2013-01-30 17:56:00,46.8,25.4,29.73,West,272,11.5,11.5,43,0.00,CLR,SCT,0.00,WeatherDisplay:10.37,2013-01-31 01:56:00,
2013-01-30 18:01:00,46.8,25.4,29.73,West,276,11.5,11.5,43,0.00,CLR,SCT,0.00,WeatherDisplay:10.37,2013-01-31 02:01:00,
2013-01-30 18:06:00,46.4,25.6,29.73,West,276,8.1,8.3,44,0.00,CLR,SCT,0.00,WeatherDisplay:10.37,2013-01-31 02:06:00,
2013-01-30 18:11:00,46.2,25.5,29.73,WNW,292,10.4,10.4,44,0.00,CLR,SCT,0.00,WeatherDisplay:10.37,2013-01-31 02:11:00,
2013-01-30 18:17:00,46.0,25.9,29.73,West,272,10.4,10.4,45,0.00,CLR,SCT,0.00,WeatherDisplay:10.37,2013-01-31 02:17:00,
2013-01-30 18:22:00,46.0,25.9,29.73,West,272,10.4,10.4,45,0.00,CLR,SCT,0.00,WeatherDisplay:10.37,2013-01-31 02:22:00,
2013-01-30 18:27:00,45.9,25.7,29.73,WNW,292,9.2,9.2,45,0.00,CLR,SCT,0.00,WeatherDisplay:10.37,2013-01-31 02:27:00,
2013-01-30 18:32:00,45.9,25.7,29.73,WNW,292,9.2,9.2,45,0.00,CLR,SCT,0.00,WeatherDisplay:10.37,2013-01-31 02:32:00,
2013-01-30 18:37:00,45.7,25.5,29.73,WNW,292,9.2,9.2,45,0.00,CLR,SCT,0.00,WeatherDisplay:10.37,2013-01-31 02:37:00,
2013-01-30 18:43:00,45.5,25.9,29.73,NNE,13,9.2,9.2,46,0.00,CLR,SCT,0.00,WeatherDisplay:10.37,2013-01-31 02:43:00,
2013-01-30 18:48:00,45.3,25.7,29.73,North,1,9.2,9.2,46,0.00,CLR,SCT,0.00,WeatherDisplay:10.37,2013-01-31 02:48:00,
2013-01-30 18:53:00,44.8,25.8,29.73,NE,50,3.5,3.6,47,0.00,CLR,SCT,0.00,WeatherDisplay:10.37,2013-01-31 02:53:00,
2013-01-30 18:58:00,44.8,25.8,29.73,NE,50,3.5,3.6,47,0.00,CLR,SCT,0.00,WeatherDisplay:10.37,2013-01-31 02:58:00,
2013-01-30 19:03:00,44.6,25.6,29.73,NE,50,3.5,3.6,47,0.00,CLR,SCT,0.00,WeatherDisplay:10.37,2013-01-31 03:03:00,
2013-01-30 19:08:00,44.4,25.9,29.73,NE,50,3.5,3.6,48,0.00,CLR,SCT,0.00,WeatherDisplay:10.37,2013-01-31 03:08:00,
2013-01-30 19:13:00,44.1,25.6,29.73,ENE,76,0.0,0.0,48,0.00,CLR,SCT,0.00,WeatherDisplay:10.37,2013-01-31 03:13:00,
2013-01-30 19:19:00,43.5,25.1,29.73,ENE,76,0.0,0.0,48,0.00,CLR,SCT,0.00,WeatherDisplay:10.37,2013-01-31 03:19:00,
2013-01-30 19:24:00,43.5,25.6,29.73,ENE,76,0.0,0.0,49,0.00,CLR,SCT,0.00,WeatherDisplay:10.37,2013-01-31 03:24:00,
2013-01-30 19:29:00,43.5,25.6,29.73,WSW,255,3.5,3.5,49,0.00,CLR,SCT,0.00,WeatherDisplay:10.37,2013-01-31 03:29:00,
2013-01-30 19:34:00,43.3,25.4,29.73,WSW,256,3.5,3.5,49,0.00,CLR,SCT,0.00,WeatherDisplay:10.37,2013-01-31 03:34:00,
2013-01-30 19:40:00,42.8,24.9,29.73,SE,131,3.5,3.5,49,0.00,CLR,SCT,0.00,WeatherDisplay:10.37,2013-01-31 03:40:00,
2013-01-30 19:45:00,42.6,25.3,29.73,SE,131,0.0,0.0,50,0.00,CLR,SCT,0.00,WeatherDisplay:10.37,2013-01-31 03:45:00,
2013-01-30 19:50:00,41.9,25.1,28.10,SE,141,3.5,3.5,51,0.00,CLR,SCT,0.00,WeatherDisplay:10.37,2013-01-31 03:50:00,
2013-01-30 19:55:00,41.7,24.9,28.10,SSE,163,3.5,3.5,51,0.00,CLR,SCT,0.00,WeatherDisplay:10.37,2013-01-31 03:55:00,
2013-01-30 20:00:00,41.7,24.9,28.10,SSW,199,3.5,3.5,51,0.00,CLR,SCT,0.00,WeatherDisplay:10.37,2013-01-31 04:00:00,
2013-01-30 20:06:00,41.2,24.4,28.10,SSW,199,3.5,3.5,51,0.00,CLR,SCT,0.00,WeatherDisplay:10.37,2013-01-31 04:06:00,
2013-01-30 20:11:00,40.5,24.2,29.73,West,262,2.3,2.7,52,0.00,CLR,SCT,0.00,WeatherDisplay:10.37,2013-01-31 04:11:00,
2013-01-30 20:16:00,40.5,24.2,29.73,ESE,103,4.6,4.6,52,0.00,CLR,SCT,0.00,WeatherDisplay:10.37,2013-01-31 04:16:00,
2013-01-30 20:21:00,40.5,24.2,29.73,ESE,103,4.6,4.6,52,0.00,CLR,SCT,0.00,WeatherDisplay:10.37,2013-01-31 04:21:00,
2013-01-30 20:27:00,40.5,25.5,29.73,ESE,106,3.5,3.6,55,0.00,CLR,SCT,0.00,WeatherDisplay:10.37,2013-01-31 04:27:00,
2013-01-30 20:32:00,40.5,25.5,29.73,ESE,106,4.0,4.0,55,0.00,CLR,SCT,0.00,WeatherDisplay:10.37,2013-01-31 04:32:00,
2013-01-30 20:37:00,40.1,24.8,29.73,SSE,160,3.5,3.5,54,0.00,CLR,SCT,0.00,WeatherDisplay:10.37,2013-01-31 04:37:00,
2013-01-30 20:42:00,40.1,24.8,29.73,SSE,163,3.5,3.5,54,0.00,CLR,SCT,0.00,WeatherDisplay:10.37,2013-01-31 04:42:00,
2013-01-30 20:47:00,39.4,25.0,29.73,SW,236,5.8,5.8,56,0.00,CLR,SCT,0.00,WeatherDisplay:10.37,2013-01-31 04:47:00,
2013-01-30 20:52:00,39.4,25.0,29.73,SW,236,5.8,5.8,56,0.00,CLR,SCT,0.00,WeatherDisplay:10.37,2013-01-31 04:52:00,
2013-01-30 20:58:00,39.4,25.0,29.73,SW,236,5.8,5.8,56,0.00,CLR,SCT,0.00,WeatherDisplay:10.37,2013-01-31 04:58:00,
2013-01-30 21:00:00,39.4,25.0,29.73,East,87,5.8,5.8,56,0.00,CLR,SCT,0.00,WeatherDisplay:10.37,2013-01-31 05:00:00,
2013-01-30 21:01:00,39.4,25.0,29.73,East,87,5.8,5.8,56,0.00,CLR,SCT,0.00,WeatherDisplay:10.37,2013-01-31 05:01:00,
2013-01-30 21:03:00,38.5,25.0,29.73,East,85,3.5,3.6,58,0.00,CLR,SCT,0.00,WeatherDisplay:10.37,2013-01-31 05:03:00,
2013-01-30 21:08:00,38.5,25.0,29.73,East,97,3.5,3.6,58,0.00,CLR,SCT,0.00,WeatherDisplay:10.37,2013-01-31 05:08:00,
2013-01-30 21:13:00,38.7,26.0,29.73,East,97,4.0,4.0,60,0.00,CLR,SCT,0.00,WeatherDisplay:10.37,2013-01-31 05:13:00,
2013-01-30 21:18:00,38.8,25.3,29.73,SSW,202,0.0,0.0,58,0.00,CLR,SCT,0.00,WeatherDisplay:10.37,2013-01-31 05:18:00,
2013-01-30 21:23:00,38.7,25.1,29.73,West,260,3.5,0.0,58,0.00,CLR,SCT,0.00,WeatherDisplay:10.37,2013-01-31 05:23:00,
2013-01-30 21:29:00,38.5,25.0,29.73,SSE,156,3.5,4.5,58,0.00,CLR,SCT,0.00,WeatherDisplay:10.37,2013-01-31 05:29:00,
2013-01-30 21:34:00,38.3,26.0,29.73,South,191,5.8,5.8,61,0.00,CLR,SCT,0.00,WeatherDisplay:10.37,2013-01-31 05:34:00,
2013-01-30 21:39:00,38.3,26.0,29.73,SSW,211,4.6,4.6,61,0.00,CLR,SCT,0.00,WeatherDisplay:10.37,2013-01-31 05:39:00,
2013-01-30 21:45:00,39.4,26.2,29.73,SSW,213,2.3,3.6,59,0.00,CLR,SCT,0.00,WeatherDisplay:10.37,2013-01-31 05:45:00,
2013-01-30 21:50:00,39.2,25.2,29.73,SSW,213,2.3,3.6,57,0.00,CLR,SCT,0.00,WeatherDisplay:10.37,2013-01-31 05:50:00,
2013-01-30 21:55:00,38.7,25.1,29.73,SSW,213,2.3,3.6,58,0.00,CLR,SCT,0.00,WeatherDisplay:10.37,2013-01-31 05:55:00,
2013-01-30 22:00:00,38.7,25.1,29.73,SE,126,5.8,5.8,58,0.00,CLR,SCT,0.00,WeatherDisplay:10.37,2013-01-31 06:00:00,
2013-01-30 22:05:00,38.7,25.1,29.73,SE,142,3.5,3.5,58,0.00,CLR,SCT,0.00,WeatherDisplay:10.37,2013-01-31 06:05:00,
2013-01-30 22:10:00,38.8,26.1,29.73,SW,234,4.6,4.6,60,0.00,CLR,SCT,0.00,WeatherDisplay:10.37,2013-01-31 06:10:00,
2013-01-30 22:16:00,39.2,26.1,29.73,West,267,4.6,4.6,59,0.00,CLR,SCT,0.00,WeatherDisplay:10.37,2013-01-31 06:16:00,
2013-01-30 22:21:00,39.2,26.1,29.73,SE,133,5.8,6.3,59,0.00,CLR,SCT,0.00,WeatherDisplay:10.37,2013-01-31 06:21:00,
2013-01-30 22:26:00,38.3,25.2,29.73,SE,141,5.8,5.8,59,0.00,CLR,SCT,0.00,WeatherDisplay:10.37,2013-01-31 06:26:00,
2013-01-30 22:31:00,37.9,25.3,29.73,SE,141,3.5,3.5,60,0.00,CLR,SCT,0.00,WeatherDisplay:10.37,2013-01-31 06:31:00,
2013-01-30 22:36:00,37.8,25.1,29.73,North,6,3.5,3.5,60,0.00,CLR,SCT,0.00,WeatherDisplay:10.37,2013-01-31 06:36:00,
2013-01-30 22:41:00,37.8,25.1,29.73,SE,140,4.0,4.0,60,0.00,CLR,SCT,0.00,WeatherDisplay:10.37,2013-01-31 06:41:00,
2013-01-30 22:47:00,37.6,25.3,29.73,SE,140,3.5,3.5,61,0.00,CLR,SCT,0.00,WeatherDisplay:10.37,2013-01-31 06:47:00,
2013-01-30 22:52:00,37.6,25.3,29.73,South,184,2.3,0.0,61,0.00,CLR,SCT,0.00,WeatherDisplay:10.37,2013-01-31 06:52:00,
2013-01-30 22:57:00,37.6,25.3,29.73,SSW,203,3.5,3.5,61,0.00,CLR,SCT,0.00,WeatherDisplay:10.37,2013-01-31 06:57:00,
2013-01-30 23:02:00,36.9,26.2,29.73,SW,225,3.5,3.5,65,0.00,CLR,SCT,0.00,WeatherDisplay:10.37,2013-01-31 07:02:00,
2013-01-30 23:07:00,36.9,26.2,29.73,SW,225,0.0,0.0,65,0.00,CLR,SCT,0.00,WeatherDisplay:10.37,2013-01-31 07:07:00,
2013-01-30 23:13:00,36.7,25.6,29.73,SW,222,2.3,2.7,64,0.00,CLR,SCT,0.00,WeatherDisplay:10.37,2013-01-31 07:13:00,
2013-01-30 23:18:00,36.7,26.0,29.73,SW,222,0.0,0.0,65,0.00,CLR,SCT,0.00,WeatherDisplay:10.37,2013-01-31 07:18:00,
2013-01-30 23:23:00,36.5,25.8,29.73,SW,222,2.3,0.0,65,0.00,CLR,SCT,0.00,WeatherDisplay:10.37,2013-01-31 07:23:00,
2013-01-30 23:29:00,36.5,26.2,29.73,SE,136,3.5,4.0,66,0.00,CLR,SCT,0.00,WeatherDisplay:10.37,2013-01-31 07:29:00,
2013-01-30 23:34:00,36.5,26.2,29.73,SE,145,2.3,3.1,66,0.00,CLR,SCT,0.00,WeatherDisplay:10.37,2013-01-31 07:34:00,
2013-01-30 23:39:00,36.0,26.1,29.73,SE,145,2.3,2.3,67,0.00,CLR,SCT,0.00,WeatherDisplay:10.37,2013-01-31 07:39:00,
2013-01-30 23:44:00,36.0,26.1,29.73,SE,145,2.0,4.0,67,0.00,CLR,SCT,0.00,WeatherDisplay:10.37,2013-01-31 07:44:00,
2013-01-30 23:50:00,36.0,26.1,29.73,SE,144,3.5,3.5,67,0.00,CLR,SCT,0.00,WeatherDisplay:10.37,2013-01-31 07:50:00,
2013-01-30 23:55:00,36.0,26.1,29.73,SE,144,2.3,2.7,67,0.00,CLR,SCT,0.00,WeatherDisplay:10.37,2013-01-31 07:55:00,